User: anonymous   Login
Location: Vancouver
(49.2500°N, 123.1330°W)
Time: 02:47:01
(UTC-07:00)
Language:

Cosmos 1340 Rocket - Orbit

View from above orbital plane
View from above orbital plane
View from above satellite
View from above satellite

Ground track
Ground track

The orbit data is extracted from the following two-line orbital elements,

1 13068U 82013B   15209.82266159  .00000929  00000-0  61827-4 0  9996
2 13068 081.2042 288.9738 0023621 072.1327 288.2469 15.05953422819708
Epoch (UTC): 28 July 2015 19:44:37
Eccentricity: 0.0023621
inclination: 81.2042°
perigee height: 532 km
apogee height: 565 km
right ascension of ascending node: 288.9738°
argument of perigee: 72.1327°
revolutions per day: 15.05953422
mean anomaly at epoch: 288.2469°
orbit number at epoch: 81970

The dashed part of the orbit path shows where the satellite is in the earth's shadow,  

DLR